Overview Statistics Trail Chart Weather Telemetry Raw packets
 

This is the latest recevied weather packets stored in our database for station/object KI4NG. If no packets are shown the sender has not sent any weather packets the latest 10 day(s).

<< 99 100 101 102 103 104 105 >>
Time Temp. Humidity Pressure Rain* Wind** Luminosity Snow
1787877759 22.78° C 86% 1016.6 hPa 0 mm - 0 W/m² -
1787877454 22.78° C 85% 1016.7 hPa 0 mm - 0 W/m² -
1787877151 22.78° C 85% 1016.5 hPa 0 mm - 0 W/m² -
1787876849 22.78° C 84% 1016.7 hPa 0 mm - 0 W/m² -
1787876545 23.33° C 83% 1016.5 hPa 0 mm - 0 W/m² -
1787876244 23.33° C 82% 1016.4 hPa 0 mm - 0 W/m² -
1787875939 23.89° C 80% 1016.2 hPa 0 mm - 2 W/m² -
1787875633 23.89° C 79% 1016.4 hPa 0 mm - 5 W/m² -
1787875332 24.44° C 78% 1016.4 hPa 0 mm - 9 W/m² -
1787875031 25° C 77% 1016.5 hPa 0 mm - 12 W/m² -
1787874727 25° C 74% 1016.5 hPa 0 mm - 15 W/m² -
1787874424 25° C 76% 1016.1 hPa 0 mm - 18 W/m² -
1787874120 25° C 76% 1016.2 hPa 0 mm - 21 W/m² -
1787873820 25.56° C 76% 1016.4 hPa 0 mm - 24 W/m² -
1787873514 25.56° C 77% 1016.4 hPa 0 mm - 27 W/m² -
1787873209 26.11° C 73% 1016 hPa 0 mm - 30 W/m² -
1787872908 26.11° C 73% 1016.1 hPa 0 mm - 33 W/m² -
1787872603 26.67° C 70% 1016.1 hPa 0 mm - 35 W/m² -
1787872304 26.67° C 70% 1016.4 hPa 0 mm - 39 W/m² -
1787871998 27.22° C 69% 1016.2 hPa 0 mm - 40 W/m² -
1787871694 27.22° C 66% 1016.2 hPa 0 mm - 42 W/m² -
1787871389 27.78° C 67% 1016.4 hPa 0 mm - 47 W/m² -
1787871084 28.33° C 67% 1016.2 hPa 0 mm - 48 W/m² -
1787870783 28.89° C 63% 1016.2 hPa 0 mm - 91 W/m² -
1787870478 28.89° C 64% 1016.2 hPa 0 mm - 147 W/m² -

* Rain latest hour (hover to see other rain measurements)
** Current wind speed in m/s (hover to see current wind gust speed)